Regional Weather Roundup
Issued by NWS Sterling, VA

Home | Current Version | Previous Version | Graphics & Text | Print | Product List | Glossary On
Versions: 1 2 3 4 5 6 7 8 9 10 11 12 13 14 15 16 17 18 19 20 21 22 23 24 25 26 27 28 29 30 31 32 33 34 35 36 37 38 39 40 41 42 43 44 45 46 47 48 49 50
000
ASUS41 KLWX 280711
RWRLWX

REGIONAL WEATHER ROUNDUP
NATIONAL WEATHER SERVICE BALTIMORE MD/WASHINGTON DC
300 AM EDT SUN MAY 28 2017

Note: "FAIR" indicates few or no clouds below 12,000 feet
with no significant weather and/or obstructions to visibility.
 TC=TEMPERATURE CELSIUS

 * =Non NWS site. Station does not report precipitation (e.g. rain,
    snow, etc.), thunder, or fog.

DCZ001-MDZ009-015-VAZ040>042-051-053>054-280800-
WASHINGTON METRO

CITY           SKY/WX    TMP DP  RH WIND       PRES   REMARKS
WASHINGTON NAT CLOUDY    64  62  93 E3        29.88F
DULLES         PTCLDY    58  57  97 E5        29.88F
ANDREWS AFB    CLOUDY    60  59  97 NE6       29.87F
FT BELVOIR     CLOUDY    60  58  93 CALM      29.88S
QUANTICO       PTCLDY    65  63  93 E6        29.89S
COLLEGE PARK*  CLEAR     58  57  97 CALM      29.88S
LEESBURG*      CLEAR     61  61 100 NE3       29.89F FOG
MANASSAS*      CLOUDY    60  59  96 S5        29.89R
GAITHERSBURG*  PTCLDY    57  57 100 CALM      29.89F FOG

$$

MDZ006>007-011-014-280800-
BALTIMORE METRO

CITY           SKY/WX    TMP DP  RH WIND       PRES   REMARKS
BWI AIRPORT    PTCLDY    59  59 100 CALM      29.88S
MD SCIENCE CTR   N/A     65  60  84 MISG      29.88S
MARTIN STATE   PTCLDY    61  61 100 CALM      29.90S FOG
ANNAPOLIS      CLEAR     64  62  93 CALM      29.88S
FORT MEADE*    PTCLDY    55  54  94 CALM      29.91S

$$

MDZ012-015-019>023-280800-
MARYLAND EASTERN SHORE

CITY           SKY/WX    TMP DP  RH WIND       PRES   REMARKS
OCEAN CITY     CLOUDY    61  57  87 SE3       29.89F
SALISBURY      CLOUDY    59  56  89 E3        29.88S
BAY BRIDGE AP* CLEAR     61  57  88 CALM      29.88F
CAMBRIDGE*     MOCLDY    61  57  88 CALM      29.88S
EASTON*        CLEAR     61  56  82 SE3       29.92S

$$

MDZ017>025-280800-
SOUTHERN MARYLAND

CITY           SKY/WX    TMP DP  RH WIND       PRES   REMARKS
PATUXENT RIVER CLOUDY    64  61  90 SE8       29.87S
ST INIGOES     CLOUDY    63  60  90 E3        29.87S
LEONARDTOWN*   PTCLDY    61  59  94 CALM      29.90R

$$

MDZ003>005-280800-
NORTH CENTRAL MARYLAND

CITY           SKY/WX    TMP DP  RH WIND       PRES   REMARKS
FREDERICK*     FOG       61  61 100 CALM      29.91F VSB<1/4
HAGERSTOWN APT FOG       60  59  96 CALM      29.88F VSB 1/4
WESTMINSTER*   FOG       59  59 100 CALM      29.89S VSB 1/4

$$

MDZ501>502-280800-
WESTERN MARYLAND

CITY           SKY/WX    TMP DP  RH WIND       PRES   REMARKS
OAKLAND*       FOG       55  55 100 SE7       29.92F VSB 1/4
CUMBERLAND*    CLOUDY    63  63 100 CALM      29.92S VSB 1/4

$$

VAZ025>031-280800-
SHENANDOAH VALLEY

CITY           SKY/WX    TMP DP  RH WIND       PRES   REMARKS
WINCHESTER*    FOG       59  59 100 NE3       29.87F VSB 1/4
FRONT ROYAL*   PTCLDY    61  61 100 CALM      29.87F
LURAY*         CLOUDY    63  63 100 N3        29.87F
NEW MARKET*    CLOUDY    62  61  94 CALM      29.88F
STAUNTON*      CLOUDY    62  60  94 CALM      29.91F
WAYNESBORO*    MOCLDY    63  63 100 CALM      29.90F

$$

WVZ021-048>050-054>055-280800-
EASTERN WEST VIRGINIA PANHANDLE

CITY           SKY/WX    TMP DP  RH WIND       PRES   REMARKS
MARTINSBURG    FOG       57  56  96 CALM      29.87S VSB 1/4
PETERSBURG*    CLOUDY    65  64  97 CALM      29.89S

$$

VAZ036>039-050-280800-
CENTRAL FOOTHILLS

CITY           SKY/WX    TMP DP  RH WIND       PRES   REMARKS
CHARLOTTESVILL CLOUDY    64  63  96 CALM      29.88S FOG
CULPEPER*      CLOUDY    62  61  99 CALM      29.89S FOG
ORANGE*        CLOUDY    61  59  94 CALM      29.88S
GORDONSVILLE*  CLOUDY    61  61 100 CALM      29.87F
WARRENTON*     PTCLDY    62  59  90 CALM      29.88R FOG

$$

VAZ055>057-280800-
NORTH AND CENTRAL PIEDMONT

CITY           SKY/WX    TMP DP  RH WIND       PRES   REMARKS
FREDERICKSBRG* CLOUDY    62  62 100 CALM      29.87F
STAFFORD*      MOCLDY    58  58 100 CALM      29.92S

$$

NCZ024-NYZ072-PAZ021-071-VAZ022-071-280800-
OTHER REGIONAL OBSERVATIONS

CITY           SKY/WX    TMP DP  RH WIND       PRES   REMARKS
NEW YORK CITY  CLOUDY    60  57  89 NE3       29.93S
PHILADELPHIA   PTCLDY    62  60  93 CALM      29.88F
PITTSBURGH     CLOUDY    60  59  96 CALM      29.84F
ROANOKE        MOCLDY    69  66  90 S5        29.88F
RICHMOND       CLOUDY    66  64  93 NE6       29.85F FOG
RALEIGH        MOCLDY    68  67  96 NW3       29.84R

$$

ANZ530>537-280800-
MARINE OBSERVATIONS

STATION/POSITION TIME  TEMP    WIND        PRES
                       AIR SEA DIR/SP/G
                 (UTC) (F)     (DEG/KT/KT) (MB)
THOMAS PT LIGHT  0700   63 65  110/  7/  8   N/A
BALT KEY BRIDGE  0648   63     100/  4/  5 1011.9R
COVE POINT       0648   65     160/  9/ 12 1012.2S
LEWISETTA        0648   67 70  100/ 10/ 12 1011.1F
SOLOMONS ISLAND  0648   66 68  120/  7/  8   N/A
PINEY POINT      0642          140/  9/ 11   N/A

$$




USA.gov is the U.S. government's official web portal to all federal, state and local government web resources and services.